This is the latest recevied weather packets stored in our database for station/object KG5MMT-15. If no packets are shown the sender has not sent any weather packets the latest 10 day(s).
| Time | Temp. | Humidity | Pressure | Rain* | Wind** | Luminosity | Snow |
|---|---|---|---|---|---|---|---|
| 1787929080 | 21.11° C | 53% | 0 hPa | 0 mm | - | - | - |
| 1787928779 | 21.11° C | 53% | 0 hPa | 0 mm | - | - | - |
| 1787928480 | 21.11° C | 54% | 0 hPa | 0 mm | - | - | - |
| 1787928180 | 20.56° C | 54% | 0 hPa | 0 mm | - | - | - |
| 1787927880 | 20° C | 59% | 0 hPa | 0 mm | - | - | - |
| 1787927580 | 20° C | 58% | 0 hPa | 0 mm | - | - | - |
| 1787927280 | 19.44° C | 59% | 0 hPa | 0 mm | - | - | - |
| 1787926980 | 18.89° C | 61% | 0 hPa | 0 mm | - | - | - |
| 1787926680 | 18.89° C | 63% | 0 hPa | 0 mm | - | - | - |
| 1787926384 | 18.33° C | 67% | 0 hPa | 0 mm | - | - | - |
| 1787926080 | 18.33° C | 69% | 0 hPa | 0 mm | - | - | - |
| 1787925780 | 17.22° C | 68% | 0 hPa | 0 mm | - | - | - |
| 1787925480 | 16.67° C | 74% | 0 hPa | 0 mm | - | - | - |
| 1787925180 | 16.11° C | 74% | 0 hPa | 0 mm | - | - | - |
| 1787924880 | 15.56° C | 79% | 0 hPa | 0 mm | - | - | - |
| 1787924580 | 15° C | 79% | 0 hPa | 0 mm | - | - | - |
| 1787924280 | 15° C | 80% | 0 hPa | 0 mm | - | - | - |
| 1787923980 | 14.44° C | 80% | 0 hPa | 0 mm | - | - | - |
| 1787923680 | 14.44° C | 82% | 0 hPa | 0 mm | - | - | - |
| 1787923380 | 13.89° C | 84% | 0 hPa | 0 mm | - | - | - |
| 1787923080 | 13.33° C | 87% | 0 hPa | 0 mm | - | - | - |
| 1787922780 | 12.78° C | 86% | 0 hPa | 0 mm | - | - | - |
| 1787922480 | 12.78° C | 88% | 0 hPa | 0 mm | - | - | - |
| 1787922180 | 12.22° C | 88% | 0 hPa | 0 mm | - | - | - |
| 1787921880 | 12.22° C | 88% | 0 hPa | 0 mm | - | - | - |
* Rain latest hour (hover to see other rain measurements)
** Current wind speed in m/s (hover to see current wind gust speed)